Probability
0 0 0 0 0 0 0 0 0 0 0 0 0 0 0 3 16 29 52 61 71 77 74 71 68 71 65 65 71 71 74 68 77 77 81 94 94 97 94 90 90 90 87 90
0 0 0 0 0 0 0 0 0 0 0 0 0 0 0 0 10 19 35 58 61 58 52 48 58 61 55 65 65 58 68 55 77 77 87 87 94 94 84 87 84 87 81 81
0 0 0 0 0 0 0 0 0 0 0 0 0 0 0 0 10 19 32 42 52 52 45 42 45 42 45 52 52 58 45 65 58 61 68 74 74 74 77 77 71 68 68 71
0 0 0 0 0 0 0 0 0 0 0 0 0 0 0 0 3 13 32 26 45 35 39 32 32 39 29 29 42 39 35 52 61 58 52 52 65 61 65 58 65 58 61 68
0 0 0 0 0 0 0 0 0 0 0 0 0 0 0 0 3 10 16 19 23 23 26 26 26 29 32 29 26 29 32 35 39 42 48 45 45 45 42 39 35 48 39 32
0 0 0 0 0 0 0 0 0 0 0 0 0 0 0 0 0 6 10 16 13 13 16 16 16 23 16 19 19 23 29 26 26 32 32 32 35 29 26 23 29 29 29 26
0 0 0 0 0 0 0 0 0 0 0 0 0 0 0 0 0 3 3 13 13 13 16 13 16 19 16 16 16 19 13 16 23 26 23 19 19 16 19 16 19 16 23 19
0 0 0 0 0 0 0 0 0 0 0 0 0 0 0 0 0 0 0 6 6 10 13 13 6 13 13 13 10 6 10 13 13 23 23 13 3 3 3 3 13 10 10 6
0 0 0 0 0 0 0 0 0 0 0 0 0 0 0 0 0 0 0 0 3 3 0 0 0 0 3 6 6 6 10 6 13 16 13 6 0 0 0 0 0 0 0 0
0 0 0 0 0 0 0 0 0 0 0 0 0 0 0 0 0 0 0 0 0 0 0 0 0 0 0 3 6 6 6 6 6 6 3 6 3 0 0 0 0 0 0 0
0 0 0 0 0 0 0 0 0 0 0 0 0 0 0 0 0 0 0 0 0 0 0 0 0 0 0 0 0 0 0 3 3 3 3 3 0 0 0 0 0 0 0 0
0 0 0 0 0 0 0 0 0 0 0 0 0 0 0 0 0 0 0 0 0 0 0 0 0 0 0 0 0 0 0 0 0 3 3 3 0 0 0 0 0 0 0 0
0 0 0 0 0 0 0 0 0 0 0 0 0 0 0 0 0 0 0 0 0 0 0 0 0 0 0 0 0 0 0 0 0 0 0 0 0 0 0 0 0 0 0 0
0 0 0 0 0 0 0 0 0 0 0 0 0 0 0 0 0 0 0 0 0 0 0 0 0 0 0 0 0 0 0 0 0 0 0 0 0 0 0 0 0 0 0 0
0 0 0 0 0 0 0 0 0 0 0 0 0 0 0 0 0 0 0 0 0 0 0 0 0 0 0 0 0 0 0 0 0 0 0 0 0 0 0 0 0 0 0 0
0 0 0 0 0 0 0 0 0 0 0 0 0 0 0 0 0 0 0 0 0 0 0 0 0 0 0 0 0 0 0 0 0 0 0 0 0 0 0 0 0 0 0 0
0 0 0 0 0 0 0 0 0 0 0 0 0 0 0 0 0 0 0 0 0 0 0 0 0 0 0 0 0 0 0 0 0 0 0 0 0 0 0 0 0 0 0 0
0 0 0 0 0 0 0 0 0 0 0 0 0 0 0 0 0 0 0 0 0 0 0 0 0 0 0 0 0 0 0 0 0 0 0 0 0 0 0 0 0 0 0 0
0 0 0 0 0 0 0 0 0 0 0 0 0 0 0 0 0 0 0 0 0 0 0 0 0 0 0 0 0 0 0 0 0 0 0 0 0 0 0 0 0 0 0 0
0 0 0 0 0 0 0 0 0 0 0 0 0 0 0 0 0 0 0 0 0 0 0 0 0 0 0 0 0 0 0 0 0 0 0 0 0 0 0 0 0 0 0 0
0 0 0 0 0 0 0 0 0 0 0 0 0 0 0 0 0 0 0 0 0 0 0 0 0 0 0 0 0 0 0 0 0 0 0 0 0 0 0 0 0 0 0 0
0 0 0 0 0 0 0 0 0 0 0 0 0 0 0 0 0 0 0 0 0 0 0 0 0 0 0 0 0 0 0 0 0 0 0 0 0 0 0 0 0 0 0 0
0 0 0 0 0 0 0 0 0 0 0 0 0 0 0 0 0 0 0 0 0 0 0 0 0 0 0 0 0 0 0 0 0 0 0 0 0 0 0 0 0 0 0 0
0 0 0 0 0 0 0 0 0 0 0 0 0 0 0 0 0 0 0 0 0 0 0 0 0 0 0 0 0 0 0 0 0 0 0 0 0 0 0 0 0 0 0 0
0 0 0 0 0 0 0 0 0 0 0 0 0 0 0 0 0 0 0 0 0 0 0 0 0 0 0 0 0 0 0 0 0 0 0 0 0 0 0 0 0 0 0 0
0 0 0 0 0 0 0 0 0 0 0 0 0 0 0 0 0 0 0 0 0 0 0 0 0 0 0 0 0 0 0 0 0 0 0 0 0 0 0 0 0 0 0 0
Height
5878 5881 5882 5884 5887 5889 5890 5892 5894 5895 5895 5895 5895 5896 5897 5898 5897 5895 5893 5892 5891 5890 5889 5888 5885 5882 5878 5875 5872 5870 5866 5864 5861 5857 5857 5856 5855 5854 5852 5850 5849 5849 5848 5847
5876 5878 5879 5881 5883 5884 5886 5887 5888 5888 5889 5889 5890 5890 5891 5892 5891 5888 5886 5885 5885 5885 5884 5883 5880 5877 5873 5868 5864 5860 5857 5855 5852 5849 5848 5847 5846 5844 5843 5842 5840 5839 5838 5837
5875 5876 5877 5878 5880 5881 5881 5882 5883 5884 5885 5885 5885 5886 5886 5886 5885 5883 5881 5880 5880 5880 5879 5877 5874 5871 5867 5862 5858 5852 5848 5845 5843 5841 5839 5837 5836 5835 5834 5832 5831 5829 5828 5826
5873 5874 5875 5876 5877 5877 5878 5878 5879 5880 5881 5882 5882 5880 5881 5879 5878 5877 5876 5875 5874 5873 5872 5870 5867 5864 5860 5856 5851 5846 5842 5838 5835 5832 5830 5828 5826 5825 5824 5823 5821 5819 5818 5816
5871 5872 5873 5874 5874 5874 5874 5874 5875 5875 5875 5876 5875 5873 5874 5873 5872 5871 5870 5869 5868 5866 5865 5863 5860 5857 5853 5849 5844 5839 5835 5831 5828 5825 5822 5819 5817 5816 5814 5812 5811 5810 5808 5806
5870 5870 5871 5871 5871 5870 5870 5870 5870 5869 5869 5870 5869 5868 5868 5866 5865 5864 5863 5862 5861 5860 5858 5856 5853 5850 5845 5840 5836 5831 5827 5823 5820 5816 5813 5811 5808 5806 5805 5803 5801 5800 5798 5797
5868 5868 5868 5868 5868 5868 5867 5867 5867 5866 5865 5865 5864 5862 5862 5861 5859 5858 5857 5856 5854 5852 5850 5848 5844 5840 5836 5831 5827 5822 5819 5815 5811 5807 5804 5801 5799 5797 5795 5793 5791 5790 5788 5786
5866 5867 5866 5866 5866 5865 5864 5864 5864 5863 5862 5861 5859 5857 5857 5854 5853 5852 5850 5848 5846 5844 5842 5838 5835 5831 5827 5822 5818 5813 5810 5806 5802 5798 5795 5791 5789 5786 5784 5782 5780 5779 5777 5775
5865 5866 5865 5864 5863 5863 5862 5861 5860 5859 5858 5858 5856 5853 5851 5849 5847 5845 5843 5841 5838 5836 5833 5830 5826 5822 5818 5814 5809 5805 5801 5796 5792 5789 5785 5781 5778 5775 5773 5771 5769 5767 5765 5763
5864 5864 5863 5862 5861 5861 5860 5858 5857 5856 5854 5853 5853 5851 5848 5844 5842 5839 5837 5834 5832 5829 5826 5822 5819 5815 5812 5807 5802 5797 5793 5788 5783 5779 5775 5771 5768 5765 5762 5760 5758 5756 5753 5751
5862 5862 5861 5860 5859 5857 5857 5856 5854 5852 5851 5849 5848 5850 5843 5840 5837 5834 5832 5829 5826 5823 5820 5817 5813 5809 5805 5800 5795 5790 5785 5780 5775 5770 5766 5762 5758 5755 5752 5749 5747 5745 5742 5740
5861 5860 5859 5858 5856 5855 5854 5853 5851 5849 5848 5845 5843 5845 5838 5835 5832 5829 5827 5824 5821 5817 5813 5809 5805 5801 5797 5793 5788 5783 5777 5772 5767 5763 5758 5753 5749 5746 5743 5740 5737 5734 5732 5729
5860 5859 5858 5856 5856 5854 5851 5849 5847 5845 5843 5840 5838 5837 5831 5829 5826 5824 5821 5817 5814 5810 5806 5801 5797 5793 5789 5785 5780 5775 5770 5765 5760 5755 5750 5746 5741 5737 5734 5731 5728 5725 5722 5720
5859 5858 5857 5855 5852 5849 5848 5846 5843 5840 5837 5834 5832 5829 5826 5823 5820 5817 5814 5810 5806 5801 5797 5792 5788 5784 5780 5776 5771 5767 5762 5757 5752 5747 5743 5738 5734 5730 5726 5722 5719 5717 5714 5712
5857 5855 5853 5851 5848 5845 5843 5841 5838 5835 5832 5829 5826 5823 5820 5817 5814 5810 5806 5801 5797 5792 5787 5782 5778 5773 5769 5765 5761 5757 5752 5748 5743 5739 5735 5730 5726 5722 5719 5715 5712 5709 5707 5705
5854 5852 5850 5847 5844 5841 5838 5835 5832 5829 5825 5822 5819 5816 5813 5809 5805 5800 5796 5791 5786 5781 5776 5771 5767 5762 5757 5753 5749 5745 5741 5737 5734 5730 5726 5722 5718 5715 5711 5708 5705 5702 5700 5698
5850 5848 5846 5843 5840 5836 5833 5830 5826 5822 5819 5816 5812 5810 5806 5801 5795 5790 5785 5780 5774 5769 5763 5758 5753 5748 5744 5740 5736 5733 5729 5726 5723 5720 5717 5713 5710 5707 5704 5701 5698 5696 5694 5693
5847 5843 5840 5837 5834 5830 5828 5823 5818 5814 5810 5807 5803 5799 5794 5790 5784 5778 5771 5765 5760 5754 5748 5743 5738 5733 5729 5725 5722 5719 5716 5714 5711 5709 5707 5704 5702 5699 5696 5694 5692 5690 5689 5688
5841 5837 5833 5830 5826 5823 5819 5814 5809 5804 5800 5798 5792 5787 5781 5776 5771 5765 5758 5750 5743 5737 5732 5726 5721 5717 5713 5709 5706 5704 5702 5700 5698 5697 5695 5693 5692 5690 5688 5687 5686 5685 5684 5683
5835 5831 5827 5822 5818 5814 5813 5808 5801 5796 5790 5786 5779 5773 5767 5760 5754 5750 5743 5736 5728 5721 5714 5709 5703 5698 5694 5690 5687 5685 5685 5684 5683 5683 5683 5682 5681 5681 5680 5679 5679 5679 5678 5678
5827 5823 5819 5815 5810 5805 5802 5797 5792 5787 5781 5773 5765 5758 5751 5743 5736 5729 5722 5714 5707 5700 5693 5686 5681 5676 5672 5668 5666 5665 5666 5666 5667 5668 5669 5669 5670 5670 5670 5671 5671 5672 5672 5672
5821 5816 5812 5807 5801 5798 5791 5785 5780 5774 5766 5758 5750 5742 5734 5726 5717 5709 5701 5693 5685 5677 5670 5662 5657 5652 5647 5643 5642 5643 5644 5646 5648 5651 5653 5655 5657 5658 5660 5661 5663 5665 5666 5667
5814 5810 5804 5799 5795 5787 5779 5773 5766 5758 5751 5742 5734 5725 5715 5707 5698 5689 5680 5672 5663 5655 5647 5640 5634 5630 5626 5621 5619 5620 5622 5625 5628 5632 5636 5640 5643 5646 5649 5652 5654 5657 5659 5661
5806 5800 5795 5789 5782 5776 5768 5760 5752 5744 5735 5725 5715 5705 5694 5685 5676 5667 5659 5650 5642 5634 5626 5619 5613 5608 5605 5601 5598 5598 5600 5604 5609 5614 5619 5624 5630 5634 5638 5641 5645 5649 5652 5654
5798 5791 5785 5778 5771 5763 5755 5746 5737 5728 5718 5707 5697 5686 5675 5665 5656 5647 5639 5631 5623 5616 5609 5602 5595 5590 5586 5582 5579 5579 5580 5584 5589 5595 5602 5608 5615 5621 5626 5631 5636 5640 5644 5648
5789 5782 5775 5767 5759 5751 5742 5732 5722 5712 5701 5690 5679 5669 5658 5645 5636 5628 5620 5613 5606 5599 5593 5587 5580 5574 5569 5565 5562 5561 5562 5566 5572 5578 5586 5593 5600 5608 5615 5621 5626 5631 5636 5640
Wind_Speed
14 15 17 18 20 23 24 22 20 21 23 24 25 25 25 24 25 30 33 34 33 32 30 30 31 32 34 35 35 36 35 37 37 35 35 35 36 37 38 38 39 38 38 38
14 15 14 15 15 16 17 19 21 23 25 25 26 27 27 26 28 31 33 33 32 30 28 28 30 32 34 36 37 39 39 38 38 39 37 37 37 37 38 39 39 39 39 40
13 11 11 10 10 12 15 19 22 24 26 27 29 29 29 30 30 31 32 31 28 25 25 27 31 33 34 35 37 40 39 39 38 38 38 38 38 38 38 38 39 39 40 41
9 9 8 8 10 13 15 17 18 20 23 28 31 32 30 30 29 29 29 27 25 25 26 29 31 32 33 34 35 37 37 37 38 38 39 39 39 38 38 39 39 40 41 41
9 8 8 9 10 12 14 15 16 16 18 21 24 27 25 23 23 23 24 25 25 25 26 28 29 30 31 32 34 35 36 37 37 37 38 38 38 38 38 38 39 39 40 40
7 7 8 7 8 10 11 12 12 13 14 15 17 19 18 17 18 19 20 21 22 24 25 27 29 30 31 33 34 35 37 38 38 39 39 39 39 38 38 38 38 39 39 40
6 7 7 6 6 7 8 8 8 9 11 12 13 16 17 17 18 18 19 20 22 24 27 29 30 30 31 32 34 36 36 37 38 39 40 40 41 40 40 39 39 39 40 40
4 6 6 6 7 7 7 8 8 7 7 7 11 15 16 17 19 20 22 24 26 27 28 28 28 28 29 32 34 35 36 37 37 38 39 40 41 41 42 42 42 42 42 42
4 4 7 8 9 8 8 8 8 8 7 7 9 14 18 20 22 24 25 27 27 26 26 27 29 31 33 34 35 36 36 37 37 38 39 40 41 41 42 42 43 43 44 44
8 6 7 8 9 9 9 9 9 10 12 11 9 12 18 22 23 25 27 28 28 29 30 32 33 34 35 35 36 38 38 37 37 37 38 38 40 40 41 42 42 43 43 43
10 7 6 8 9 10 11 12 12 13 14 16 14 11 17 20 23 25 27 28 30 31 33 34 34 35 35 36 38 39 39 39 38 38 37 37 37 38 39 40 40 41 41 41
9 7 7 8 10 11 12 13 15 16 17 18 20 17 19 22 25 27 29 31 32 34 35 36 37 37 37 37 38 39 39 39 39 38 37 36 35 36 37 37 38 38 38 37
8 8 8 10 12 13 14 16 17 19 20 20 22 25 24 26 27 29 31 33 35 36 37 38 39 39 39 38 38 39 39 39 39 38 37 35 34 34 35 35 35 35 34 33
9 9 10 11 13 16 17 18 20 23 24 25 26 28 28 29 30 32 33 35 37 39 40 41 41 42 42 41 40 40 39 39 39 38 37 35 34 33 34 33 33 32 30 28
11 11 12 13 16 18 19 20 22 25 27 28 29 30 30 31 32 33 35 38 40 42 43 44 45 45 45 44 44 42 41 40 39 38 37 35 34 33 32 31 30 29 27 26
15 15 14 15 19 21 23 24 26 27 27 28 30 31 32 34 36 38 41 43 45 46 47 48 49 49 49 48 47 45 43 41 40 38 36 35 34 33 31 29 28 27 25 23
18 18 18 19 21 22 25 26 26 27 28 29 31 33 34 37 41 44 46 48 50 51 53 53 54 53 52 51 50 49 46 43 41 39 37 35 33 32 30 28 26 25 23 21
20 21 22 22 23 25 27 27 27 28 29 30 33 36 39 42 45 48 51 53 55 57 58 58 58 58 57 55 53 51 49 45 42 40 37 35 33 31 30 27 25 23 21 19
25 26 28 28 29 28 28 29 30 32 34 35 38 42 45 48 50 53 55 58 60 61 62 62 62 62 61 60 57 54 51 47 43 40 38 35 33 31 29 26 24 21 20 17
28 29 30 31 32 32 32 31 34 38 41 42 46 50 53 55 58 58 60 61 62 63 64 64 64 64 63 61 59 55 51 48 44 40 38 35 32 31 29 26 23 21 19 17
30 31 31 32 34 37 37 38 40 43 47 49 53 56 59 61 63 65 66 67 67 68 68 68 67 66 65 62 60 56 52 49 46 42 39 36 33 31 28 25 23 21 19 17
30 31 33 34 37 39 41 44 46 48 51 54 57 60 63 65 67 68 69 70 71 71 70 70 69 66 63 60 58 54 52 49 46 43 40 38 35 31 28 25 24 22 20 18
31 32 34 37 40 43 46 48 51 53 56 59 61 64 66 69 70 71 72 72 71 71 69 67 64 60 57 55 54 52 50 48 47 45 42 39 36 32 29 26 24 22 21 19
34 36 39 41 43 46 49 51 53 56 59 62 65 68 71 72 73 73 73 72 69 65 61 57 55 53 51 50 50 49 48 47 47 47 43 40 36 33 31 28 25 23 21 19
37 40 42 44 46 48 51 53 56 59 63 65 68 71 73 73 72 71 68 63 57 53 50 48 48 47 46 45 45 46 47 46 45 44 43 41 38 35 32 29 27 25 23 21
39 41 43 45 48 51 54 56 60 63 66 68 70 71 70 68 65 60 54 50 47 45 43 45 45 44 43 43 41 42 43 44 43 43 44 41 38 36 34 31 29 27 25 23
Wind_Direction
192 199 205 216 222 226 233 236 236 236 242 246 251 257 263 269 274 277 278 280 282 285 292 296 299 300 299 298 296 293 289 289 286 284 284 282 279 278 277 277 276 277 277 276
179 189 203 209 216 217 221 226 225 226 235 240 245 251 258 263 268 270 272 276 279 285 292 296 300 300 300 298 296 295 292 291 288 287 285 282 279 277 276 276 277 277 277 277
189 194 199 208 215 218 221 228 229 229 234 243 251 256 262 267 270 270 272 277 281 287 293 296 296 296 296 295 294 294 293 293 291 289 287 285 282 280 278 277 277 277 277 278
212 211 215 221 231 237 240 245 246 243 240 240 251 258 261 268 271 271 274 279 284 289 291 293 295 296 297 296 295 293 294 294 293 291 289 287 285 282 280 279 278 278 279 279
228 236 240 243 249 251 254 260 262 259 253 249 251 261 268 269 271 275 280 283 285 288 289 293 297 300 300 299 297 295 294 293 292 292 291 289 287 286 284 282 281 280 279 280
237 246 254 260 263 263 267 267 266 266 263 258 258 263 268 276 283 285 288 288 288 293 295 297 300 303 301 298 296 295 295 294 292 291 290 289 288 287 286 285 283 282 281 281
238 244 254 262 270 274 278 279 274 267 266 265 268 271 277 283 288 289 292 296 297 301 303 303 304 304 302 301 299 298 296 295 293 290 288 287 286 286 285 284 284 284 283 283
268 250 252 263 277 293 296 293 292 285 278 273 273 276 284 287 291 295 297 300 303 306 308 309 310 311 312 310 307 305 303 299 296 292 290 287 285 284 284 284 284 284 284 284
326 290 268 269 278 285 292 292 299 302 302 299 287 288 291 292 297 301 303 306 309 313 315 317 318 320 320 318 315 314 312 307 303 298 294 291 287 285 285 284 284 284 284 284
330 321 295 279 272 274 277 281 289 300 306 306 298 301 299 296 299 301 305 309 313 317 319 320 320 320 320 319 317 316 315 313 310 306 300 295 291 288 287 286 286 286 286 286
318 315 301 284 278 276 279 285 289 292 299 303 305 309 297 292 293 296 301 307 313 315 316 316 316 317 317 317 316 315 315 314 313 312 308 302 297 292 290 288 287 287 286 287
310 313 303 289 285 290 291 295 295 293 295 297 299 300 288 289 294 299 306 310 312 312 313 313 313 313 313 313 312 312 312 313 314 313 311 307 302 297 294 292 290 288 287 288
314 314 311 301 298 299 299 298 295 294 293 294 296 294 294 297 302 306 308 308 308 307 307 307 307 307 307 308 308 308 309 310 311 311 310 307 304 301 298 295 293 291 290 289
321 315 308 301 295 293 293 292 290 289 291 292 291 291 298 302 304 306 305 304 302 302 302 302 303 304 305 306 306 306 306 307 308 309 308 307 304 303 301 298 295 292 291 290
318 312 305 298 293 294 294 292 290 289 290 290 292 294 299 302 303 302 301 300 300 300 300 300 301 301 302 303 304 304 304 304 305 305 306 304 303 302 301 300 297 293 292 290
319 315 310 304 299 300 298 299 298 296 296 295 296 298 301 300 299 298 298 297 296 296 296 296 297 297 298 299 300 301 301 301 302 302 302 302 300 299 299 298 298 295 292 291
317 315 312 309 304 302 301 305 303 301 299 297 296 296 296 293 293 292 292 292 292 293 294 295 295 296 296 297 297 297 297 297 298 298 298 298 298 296 296 295 293 293 291 290
316 314 314 313 310 310 310 310 307 303 299 297 295 294 293 291 291 292 293 293 293 293 294 294 294 294 294 293 293 293 292 292 292 292 292 292 293 292 291 290 288 287 286 286
317 317 318 319 317 315 314 314 310 304 299 299 297 295 294 294 293 291 291 292 292 292 292 291 291 290 290 289 289 288 287 286 286 285 285 285 285 286 284 284 282 279 279 279
318 318 319 318 316 314 312 311 306 302 300 301 298 296 295 295 294 294 292 291 290 290 289 288 288 288 288 287 285 283 281 280 279 278 277 276 276 277 277 277 273 270 270 270
319 319 317 315 311 308 309 306 303 299 298 298 297 297 297 297 297 297 296 295 294 293 292 291 290 290 288 285 281 279 276 273 271 270 268 267 266 267 267 267 264 261 261 262
317 314 311 309 306 303 304 301 300 299 299 298 298 298 298 298 297 297 297 296 296 296 296 294 293 291 289 285 280 276 272 267 263 262 259 257 257 257 257 256 254 252 253 254
312 309 306 304 303 303 303 303 302 302 301 300 300 299 299 299 299 299 299 299 299 298 297 296 294 292 290 285 278 273 268 262 255 253 252 250 249 248 246 246 244 244 245 246
310 308 306 305 305 304 304 304 303 303 302 302 302 302 302 301 301 300 300 300 299 298 297 296 296 294 290 285 278 272 264 257 252 248 245 245 244 241 238 236 235 235 237 236
310 309 308 306 307 306 305 306 306 305 304 304 303 302 301 300 300 300 300 300 299 298 298 298 298 296 293 287 278 269 262 255 250 245 240 239 236 232 229 228 227 228 229 228
312 310 309 310 310 309 309 309 308 307 305 304 302 301 301 301 302 302 301 301 302 301 301 302 301 298 295 290 280 269 259 254 249 241 235 233 229 224 222 221 220 222 224 222